Location: Goettingen
(51.5300°N, 9.9433°E)
Time: 11:30:00
(UTC+02:00)

ISS - Pass Details

Date: 21 May 2019
Orbit: 407 x 410 km, 51.6° (Epoch: 21 May)

Event Time Altitude Azimuth Distance (km) Brightness Sun altitude
Rises 00:22:28 0° 269° (W) 2,334 0.2 -17.4°
Reaches altitude 10° 00:24:34 10° 269° (W) 1,474 -0.9 -17.5°
Maximum altitude 00:27:52 86° 358° (N) 415 -3.9 -17.6°
Drops below altitude 10° 00:31:11 10° 88° (E) 1,475 -1.1 -17.7°
Enters shadow 00:31:57 - 89° (E) 1,789 -0.7 -17.7°
